Regional Weather Roundup
Issued by NWS Albany, NY

Home | Current Version | Previous Version | Graphics & Text | Print | Product List | Glossary Off
Versions: 1 2 3 4 5 6 7 8 9 10 11 12 13 14 15 16 17 18 19 20 21 22 23 24 25 26 27 28 29 30 31 32 33 34 35 36 37 38 39 40 41 42 43 44 45 46 47 48 49 50

000
ASUS41 KALY 291110
RWRALY

NEW YORK STATE HOURLY WEATHER ROUNDUP
NATIONAL WEATHER SERVICE ALBANY NY
700 AM EDT FRI AUG 29 2014

NOTE: "FAIR" INDICATES FEW OR NO CLOUDS BELOW 12,000 FEET WITH NO
SIGNIFICANT WEATHER AND/OR NO OBSTRUCTIONS TO VISIBILITY.

NYZ032-033-038>043-046>054-057>066-NYZ062>081-291200-
EAST


CITY           SKY/WX    TMP DP  RH WIND       PRES   REMARKS
ALBANY         PTCLDY    52  49  89 CALM      30.17R
GLENS FALLS    CLEAR     56  50  80 N7        30.15R
POUGHKEEPSIE   CLEAR     50  48  93 CALM      30.16R
NEWBURGH       CLEAR     52  50  93 CALM      30.17R
MONTGOMERY     CLEAR     47  45  93 CALM      30.17R
WHITE PLAINS   CLEAR     57  50  77 NW3       30.14R
ISLIP          CLEAR     62  53  72 N3        30.11R
NEW YORK CITY  MOCLDY    64  51  62 NE5       30.14R
CENTRAL PARK   CLEAR     61  51  70 CALM      30.17R
$$

NYZ005>009-017-018-044>046-055-056-291200-
CENTRAL


CITY           SKY/WX    TMP DP  RH WIND       PRES   REMARKS
FULTON         CLEAR     48  45  89 CALM      30.19R
SYRACUSE       PTCLDY    52  50  93 CALM      30.19R
ROME           CLEAR     47  46  97 CALM      30.20R
ELMIRA         CLOUDY    49  48  97 CALM      30.21R
BINGHAMTON     MOCLDY    51  48  89 W5        30.19R
MONTICELLO     PTCLDY    46  46 100 W5        30.19R
$$

NYZ026>034-041>043-291200-
NORTH


CITY           SKY/WX    TMP DP  RH WIND       PRES   REMARKS
WATERTOWN      CLEAR     47  43  86 CALM      30.18R
FORT DRUM      NOT AVBL
MASSENA        CLEAR     51  50  96 CALM      30.18R
SARANAC LAKE   CLOUDY    41  41 100 CALM      30.18R
PLATTSBURGH    PTCLDY    51  50  96 CALM      30.17R
$$

NYZ001>004-010>016-019>021-291200-
WEST


CITY           SKY/WX    TMP DP  RH WIND       PRES   REMARKS
NIAGARA FALLS  CLEAR     50  47  89 E5        30.18R
BUFFALO        MOCLDY    52  47  83 SE5       30.18R
DUNKIRK        CLOUDY    58  55  90 CALM      30.18R
JAMESTOWN      PTCLDY    48  46  93 S3        30.20S
WELLSVILLE     CLEAR     46  44  93 CALM      30.23R
ROCHESTER      MOCLDY    51  49  92 SW3       30.19R
PENN YAN       PTCLDY    54  51  90 S6        30.20R
$$

             KEY
       WCI = WIND CHILL INDEX
       VSB = VISIBILITY
       HX  = HEAT INDEX
$$


USA.gov is the U.S. government's official web portal to all federal, state and local government web resources and services.